Terminal Aerodrome Forecast
Issued by NWS Denver/Boulder, CO

Home | Current Version | Previous Version | Text Only | Print | Product List | Glossary On
Versions: 1 2 3 4 5 6 7 8 9 10 11 12 13 14 15 16 17 18 19 20 21 22 23 24 25 26 27 28 29 30 31 32 33 34 35 36 37 38 39 40 41 42 43 44 45 46 47 48 49 50
000
FTUS45 KBOU 040242 AAA
TAFDEN
TAF AMD
KDEN 040242Z 0403/0506 22010KT P6SM SCT100 SCT150 SCT200
     FM040600 21008KT P6SM FEW100 FEW150
     FM041400 VRB06KT P6SM SCT090 BKN140
     FM042100 15008KT P6SM VCSH SCT080 BKN120
     FM050200 17008KT P6SM SCT100 BKN150=

USA.gov is the U.S. government's official web portal to all federal, state and local government web resources and services.